�������l�o���
Date,Time,MP-1(��Sv/h),MP-2(��Sv/h),MP-3(��Sv/h),MP-4(��Sv/h),MP-5(��Sv/h),MP-6(��Sv/h),MP-7(��Sv/h),MP-8(��Sv/h),����,����(m/s),���J
2020/05/06,00:00,0.709,1.029,0.674,1.248,0.893,0.404,0.700,0.664,�k��,3.9,�L
2020/05/06,00:10,0.711,1.029,0.673,1.249,0.892,0.404,0.700,0.666,�k��,3.9,�L
2020/05/06,00:20,0.709,1.029,0.672,1.247,0.890,0.404,0.699,0.664,�k��,3.1,�L
2020/05/06,00:30,0.709,1.025,0.674,1.247,0.891,0.403,0.699,0.663,�k��,3.0,�L
2020/05/06,00:40,0.709,1.023,0.673,1.247,0.888,0.403,0.700,0.665,�k��,3.6,�L
2020/05/06,00:50,0.707,1.025,0.672,1.246,0.892,0.402,0.699,0.663,�k��,3.2,��
2020/05/06,01:00,0.708,1.021,0.671,1.246,0.890,0.402,0.700,0.663,�k��,2.9,��
2020/05/06,01:10,0.706,1.023,0.670,1.246,0.888,0.401,0.699,0.663,�k��,2.9,��
2020/05/06,01:20,0.706,1.020,0.672,1.245,0.891,0.401,0.700,0.664,�k�k��,2.9,�L
2020/05/06,01:30,0.706,1.020,0.671,1.244,0.888,0.401,0.699,0.663,�k�k��,3.7,�L
2020/05/06,01:40,0.705,1.020,0.670,1.245,0.885,0.402,0.701,0.661,�k,3.8,�L
2020/05/06,01:50,0.706,1.019,0.670,1.243,0.885,0.400,0.701,0.662,�k�k��,3.4,��
2020/05/06,02:00,0.705,1.018,0.669,1.245,0.886,0.401,0.700,0.661,�k�k��,4.8,��
2020/05/06,02:10,0.703,1.018,0.669,1.243,0.887,0.401,0.698,0.662,�k�k��,6.1,��
2020/05/06,02:20,0.701,1.017,0.670,1.242,0.887,0.399,0.699,0.662,�k�k��,6.1,��
2020/05/06,02:30,0.701,1.017,0.667,1.241,0.885,0.400,0.700,0.661,�k,5.8,��
2020/05/06,02:40,0.704,1.017,0.669,1.241,0.884,0.400,0.699,0.664,�k,5.2,��
2020/05/06,02:50,0.702,1.019,0.668,1.243,0.883,0.398,0.697,0.662,�k�k��,3.7,��
2020/05/06,03:00,0.702,1.017,0.668,1.242,0.888,0.399,0.698,0.662,�k,3.9,��
2020/05/06,03:10,0.702,1.018,0.668,1.244,0.886,0.401,0.700,0.662,�k,3.7,��
2020/05/06,03:20,0.701,1.018,0.667,1.242,0.885,0.398,0.697,0.661,�k,3.7,��
2020/05/06,03:30,0.702,1.017,0.668,1.240,0.883,0.399,0.699,0.664,�k,4.0,��
2020/05/06,03:40,0.702,1.018,0.669,1.242,0.884,0.398,0.702,0.662,�k,4.2,��
2020/05/06,03:50,0.701,1.017,0.668,1.242,0.884,0.400,0.699,0.663,�k�k��,4.3,��
2020/05/06,04:00,0.700,1.016,0.668,1.245,0.883,0.399,0.699,0.663,�k,3.9,��
2020/05/06,04:10,0.702,1.018,0.669,1.240,0.884,0.399,0.700,0.664,�k,3.0,��
2020/05/06,04:20,0.701,1.019,0.667,1.242,0.885,0.400,0.698,0.663,�k,3.2,��
2020/05/06,04:30,0.701,1.016,0.667,1.241,0.884,0.399,0.699,0.661,�k,3.1,��
2020/05/06,04:40,0.701,1.016,0.668,1.242,0.885,0.399,0.697,0.663,�k,3.6,��
2020/05/06,04:50,0.702,1.017,0.669,1.243,0.884,0.399,0.699,0.661,�k�k��,4.1,��
2020/05/06,05:00,0.702,1.018,0.669,1.243,0.883,0.397,0.698,0.662,�k,3.1,��
2020/05/06,05:10,0.703,1.016,0.668,1.245,0.885,0.398,0.699,0.662,�k,4.0,��
2020/05/06,05:20,0.702,1.019,0.668,1.243,0.884,0.399,0.698,0.661,�k,4.2,�L
2020/05/06,05:30,0.702,1.016,0.667,1.241,0.883,0.399,0.698,0.661,�k,4.5,�L
2020/05/06,05:40,0.701,1.014,0.667,1.245,0.885,0.399,0.699,0.662,�k,4.0,�L
2020/05/06,05:50,0.701,1.017,0.665,1.241,0.885,0.399,0.698,0.662,�k,3.4,��
2020/05/06,06:00,0.702,1.018,0.668,1.244,0.887,0.400,0.700,0.662,�k,4.3,��
2020/05/06,06:10,0.702,1.017,0.669,1.242,0.886,0.399,0.697,0.661,�k,4.0,��
2020/05/06,06:20,0.701,1.019,0.667,1.242,0.885,0.398,0.698,0.662,�k,4.8,��
2020/05/06,06:30,0.701,1.019,0.666,1.240,0.886,0.398,0.700,0.662,�k,3.8,��
2020/05/06,06:40,0.703,1.017,0.666,1.244,0.883,0.398,0.700,0.661,�k,4.8,�L
2020/05/06,06:50,0.703,1.019,0.667,1.243,0.886,0.399,0.699,0.662,�k,5.2,�L
2020/05/06,07:00,0.702,1.019,0.670,1.242,0.886,0.399,0.701,0.662,�k,4.8,�L
2020/05/06,07:10,0.703,1.017,0.669,1.243,0.886,0.399,0.699,0.662,�k�k��,3.8,�L
2020/05/06,07:20,0.703,1.019,0.669,1.243,0.885,0.399,0.701,0.662,�k�k��,3.5,�L
2020/05/06,07:30,0.704,1.019,0.667,1.242,0.885,0.399,0.700,0.662,�k�k��,3.1,��
2020/05/06,07:40,0.702,1.017,0.669,1.242,0.886,0.398,0.699,0.663,�k�k��,2.6,�L
2020/05/06,07:50,0.702,1.016,0.667,1.243,0.884,0.399,0.699,0.662,�k�k��,3.3,�L
2020/05/06,08:00,0.702,1.014,0.668,1.242,0.885,0.398,0.698,0.663,�k�k��,2.6,�L
2020/05/06,08:10,0.703,1.016,0.667,1.242,0.884,0.399,0.699,0.663,�k�k��,2.0,��
2020/05/06,08:20,0.701,1.019,0.669,1.240,0.885,0.400,0.700,0.663,�k�k��,2.0,��
2020/05/06,08:30,0.701,1.017,0.668,1.243,0.886,0.398,0.700,0.664,�k,1.7,��
2020/05/06,08:40,0.703,1.015,0.668,1.244,0.886,0.399,0.698,0.662,�k�k��,1.7,��
2020/05/06,08:50,0.704,1.018,0.669,1.243,0.885,0.399,0.699,0.661,�k��,2.6,��
2020/05/06,09:00,0.701,1.017,0.666,1.244,0.884,0.399,0.698,0.662,�k�k��,2.0,��
2020/05/06,09:10,0.704,1.016,0.668,1.242,0.884,0.399,0.699,0.662,�k�k��,2.9,��
2020/05/06,09:20,0.704,1.018,0.669,1.243,0.887,0.400,0.699,0.662,�k�k��,2.6,��
2020/05/06,09:30,0.704,1.020,0.667,1.243,0.885,0.399,0.699,0.661,�k�k��,2.0,��
2020/05/06,09:40,0.705,1.018,0.668,1.242,0.884,0.400,0.700,0.661,�k��,3.0,��
2020/05/06,09:50,0.706,1.018,0.668,1.246,0.885,0.399,0.698,0.663,�k�k��,2.2,��
2020/05/06,10:00,0.705,1.017,0.668,1.242,0.885,0.398,0.699,0.663,�k��,2.6,�L
2020/05/06,10:10,0.705,1.019,0.668,1.243,0.883,0.398,0.700,0.662,�k�k��,2.3,�L
2020/05/06,10:20,0.704,1.020,0.669,1.243,0.888,0.400,0.699,0.661,�k��,1.7,��
2020/05/06,10:30,0.704,1.019,0.670,1.243,0.886,0.399,0.700,0.663,�k��,1.5,��
2020/05/06,10:40,0.705,1.021,0.670,1.245,0.885,0.399,0.698,0.662,�k�k��,1.7,�L
2020/05/06,10:50,0.706,1.018,0.669,1.243,0.885,0.399,0.699,0.661,�k��,1.1,�L
2020/05/06,11:00,0.706,1.021,0.670,1.244,0.886,0.400,0.701,0.662,�k��,1.5,��
2020/05/06,11:10,0.706,1.021,0.670,1.243,0.887,0.401,0.700,0.661,�k�k��,1.2,��
2020/05/06,11:20,0.705,1.020,0.671,1.244,0.884,0.400,0.700,0.663,�k�k��,1.9,�L
2020/05/06,11:30,0.705,1.021,0.671,1.246,0.888,0.400,0.699,0.661,���k��,1.5,�L
2020/05/06,11:40,0.704,1.020,0.673,1.243,0.887,0.401,0.700,0.659,�k�k��,1.2,�L
2020/05/06,11:50,0.703,1.020,0.671,1.246,0.887,0.402,0.699,0.660,�k,1.4,�L
2020/05/06,12:00,0.703,1.019,0.669,1.244,0.888,0.399,0.698,0.661,�k�k��,1.7,�L
2020/05/06,12:10,0.705,1.019,0.671,1.242,0.887,0.399,0.698,0.660,�k�k��,2.3,�L
2020/05/06,12:20,0.704,1.020,0.670,1.245,0.887,0.399,0.701,0.659,�k,2.5,��
2020/05/06,12:30,0.704,1.022,0.669,1.245,0.886,0.400,0.700,0.662,�k�k��,2.5,��
2020/05/06,12:40,0.706,1.023,0.671,1.247,0.888,0.401,0.700,0.661,�k�k��,3.0,��
2020/05/06,12:50,0.703,1.018,0.672,1.245,0.885,0.400,0.701,0.660,�k�k��,2.3,��
2020/05/06,13:00,0.704,1.020,0.671,1.245,0.887,0.400,0.701,0.660,�k,2.3,��
2020/05/06,13:10,0.704,1.020,0.673,1.245,0.888,0.399,0.700,0.660,�k�k��,2.2,��
2020/05/06,13:20,0.704,1.020,0.671,1.248,0.889,0.399,0.699,0.659,�k,1.7,�L
2020/05/06,13:30,0.705,1.020,0.670,1.246,0.885,0.400,0.700,0.661,�k�k��,1.5,�L
2020/05/06,13:40,0.705,1.020,0.669,1.242,0.885,0.401,0.700,0.660,�k,1.5,�L
2020/05/06,13:50,0.704,1.017,0.670,1.246,0.886,0.400,0.699,0.659,�k�k��,2.0,�L
2020/05/06,14:00,0.704,1.017,0.670,1.244,0.885,0.402,0.699,0.660,�k,4.1,�L
2020/05/06,14:10,0.704,1.014,0.669,1.246,0.884,0.401,0.699,0.660,�k,4.0,�L
2020/05/06,14:20,0.705,1.013,0.672,1.245,0.885,0.402,0.699,0.659,�k,3.4,�L
2020/05/06,14:30,0.705,1.014,0.671,1.243,0.882,0.403,0.700,0.660,�k,2.9,�L
2020/05/06,14:40,0.704,1.013,0.670,1.242,0.881,0.404,0.697,0.661,�k,2.8,�L
2020/05/06,14:50,0.704,1.013,0.670,1.239,0.880,0.403,0.698,0.661,�k,3.4,�L
2020/05/06,15:00,0.705,1.013,0.668,1.240,0.879,0.403,0.698,0.661,�k,2.6,�L
2020/05/06,15:10,0.704,1.013,0.669,1.242,0.879,0.402,0.698,0.659,�k,2.9,�L
2020/05/06,15:20,0.704,1.012,0.667,1.239,0.878,0.401,0.697,0.660,�k,2.9,�L
2020/05/06,15:30,0.700,1.012,0.667,1.236,0.879,0.402,0.696,0.660,�k,3.3,�L
2020/05/06,15:40,0.701,1.010,0.667,1.238,0.880,0.401,0.698,0.662,�k,3.5,�L
2020/05/06,15:50,0.703,1.010,0.667,1.236,0.879,0.401,0.697,0.661,�k,3.7,�L
2020/05/06,16:00,0.703,1.012,0.667,1.237,0.880,0.401,0.698,0.662,�k,4.0,�L
2020/05/06,16:10,0.701,1.009,0.666,1.235,0.877,0.401,0.698,0.662,�k,4.3,��
2020/05/06,16:20,0.699,1.009,0.666,1.238,0.879,0.400,0.698,0.660,�k,4.9,�L
2020/05/06,16:30,0.699,1.009,0.667,1.235,0.878,0.400,0.698,0.660,�k,4.7,�L
2020/05/06,16:40,0.700,1.010,0.666,1.235,0.878,0.399,0.697,0.661,�k,4.1,�L
2020/05/06,16:50,0.699,1.007,0.666,1.235,0.880,0.399,0.698,0.661,�k,5.5,�L
2020/05/06,17:00,0.700,1.011,0.665,1.234,0.879,0.399,0.698,0.661,�k,4.9,�L
2020/05/06,17:10,0.701,1.007,0.665,1.235,0.879,0.398,0.698,0.661,�k�k��,5.1,�L
2020/05/06,17:20,0.699,1.009,0.665,1.237,0.879,0.399,0.695,0.661,�k�k��,4.5,�L
2020/05/06,17:30,0.699,1.008,0.666,1.235,0.878,0.399,0.697,0.661,�k�k��,3.7,�L
2020/05/06,17:40,0.699,1.010,0.665,1.235,0.878,0.397,0.696,0.660,�k�k��,3.0,�L
2020/05/06,17:50,0.699,1.009,0.665,1.236,0.878,0.398,0.698,0.660,�k,3.8,�L
2020/05/06,18:00,0.699,1.011,0.664,1.233,0.879,0.399,0.698,0.661,�k,3.5,��
2020/05/06,18:10,0.698,1.009,0.665,1.235,0.876,0.399,0.698,0.661,�k,2.6,��
2020/05/06,18:20,0.699,1.010,0.665,1.236,0.879,0.398,0.698,0.659,�k�k��,3.2,��
2020/05/06,18:30,0.699,1.010,0.665,1.235,0.879,0.399,0.699,0.660,�k�k��,4.3,��
2020/05/06,18:40,0.700,1.009,0.665,1.236,0.879,0.398,0.698,0.661,�k,4.7,��
2020/05/06,18:50,0.699,1.009,0.664,1.236,0.876,0.397,0.699,0.659,�k,5.1,��
2020/05/06,19:00,0.698,1.009,0.665,1.237,0.877,0.398,0.698,0.659,�k,4.9,��
2020/05/06,19:10,0.699,1.009,0.664,1.234,0.877,0.397,0.698,0.661,�k�k��,4.9,��
2020/05/06,19:20,0.698,1.008,0.665,1.237,0.877,0.398,0.699,0.660,�k�k��,5.1,��
2020/05/06,19:30,0.699,1.009,0.664,1.238,0.875,0.398,0.698,0.661,�k,4.6,��
2020/05/06,19:40,0.699,1.006,0.665,1.237,0.877,0.397,0.698,0.660,�k,5.2,��
2020/05/06,19:50,0.699,1.009,0.664,1.236,0.877,0.397,0.700,0.659,�k,5.3,��
2020/05/06,20:00,0.699,1.010,0.665,1.236,0.880,0.397,0.698,0.662,�k,7.2,��
2020/05/06,20:10,0.697,1.008,0.664,1.236,0.876,0.399,0.697,0.661,�k,7.5,��
2020/05/06,20:20,0.699,1.009,0.664,1.236,0.879,0.397,0.696,0.661,�k,6.9,��
2020/05/06,20:30,0.699,1.008,0.665,1.235,0.878,0.398,0.699,0.660,�k,6.1,��
2020/05/06,20:40,0.698,1.009,0.664,1.235,0.877,0.399,0.697,0.662,�k,5.7,��
2020/05/06,20:50,0.699,1.008,0.665,1.235,0.879,0.398,0.698,0.659,�k�k��,4.3,��
2020/05/06,21:00,0.698,1.007,0.666,1.238,0.878,0.398,0.698,0.660,�k�k��,2.9,��
2020/05/06,21:10,0.699,1.008,0.665,1.236,0.879,0.398,0.698,0.661,�k��,1.2,��
2020/05/06,21:20,0.700,1.009,0.664,1.237,0.878,0.398,0.698,0.659,�k�k��,1.2,��
2020/05/06,21:30,0.701,1.008,0.665,1.237,0.879,0.397,0.697,0.659,�k,2.0,��
2020/05/06,21:40,0.698,1.009,0.665,1.235,0.877,0.397,0.700,0.660,�k�k��,2.8,��
2020/05/06,21:50,0.699,1.007,0.664,1.237,0.878,0.399,0.698,0.660,�k�k��,3.5,��
2020/05/06,22:00,0.698,1.009,0.665,1.237,0.877,0.397,0.699,0.660,�k�k��,4.5,��
2020/05/06,22:10,0.698,1.008,0.665,1.236,0.877,0.397,0.702,0.659,�k�k��,4.0,��
2020/05/06,22:20,0.699,1.009,0.666,1.234,0.876,0.398,0.698,0.658,�k�k��,3.4,��
2020/05/06,22:30,0.698,1.008,0.665,1.237,0.876,0.398,0.699,0.660,�k,5.7,��
2020/05/06,22:40,0.699,1.008,0.665,1.236,0.876,0.398,0.698,0.660,�k,6.7,��
2020/05/06,22:50,0.699,1.008,0.663,1.238,0.878,0.398,0.697,0.660,�k,6.8,��
2020/05/06,23:00,0.697,1.007,0.665,1.237,0.877,0.397,0.698,0.659,�k,7.2,��
2020/05/06,23:10,0.698,1.008,0.662,1.236,0.877,0.397,0.699,0.658,�k,6.5,��
2020/05/06,23:20,0.697,1.009,0.664,1.237,0.877,0.398,0.701,0.661,�k�k��,7.2,��
2020/05/06,23:30,0.699,1.008,0.665,1.238,0.876,0.398,0.698,0.659,�k�k��,5.9,��
2020/05/06,23:40,0.700,1.006,0.665,1.238,0.876,0.398,0.698,0.658,�k�k��,4.8,��
2020/05/06,23:50,0.699,1.006,0.666,1.238,0.878,0.399,0.698,0.658,�k�k��,4.3,��
